Simultaneous Nadir Overpasses (SNOs) Predictions

Prediction of SNOs between NPP and PACE Satellite Orbit:

Table of predicted SNOs for the next 14.0 days since TLE Epoch: 9/28/2024
Index Date (NPP) Time (NPP) Lat,Lon (NPP) SZA (NPP ) Date (PACE) Time (PACE) Lat,Lon (PACE) SZA (PACE ) Distance(km) Time Diff (sec)
1 09/29/2024 18:19:50 -79.94, 46.86 95.41 09/29/2024 18:19:54 -79.93, 47.02 95.43 3.20 4
2 10/01/2024 21:55:26 79.94, 172.93 85.42 10/01/2024 21:56:04 79.95, 172.85 85.41 1.82 38
3 10/01/2024 22:46:04 -79.73, -17.77 94.95 10/01/2024 22:45:07 -79.74, -17.88 94.91 2.22 57
4 10/04/2024 01:31:04 -80.01, -61.66 93.66 10/04/2024 01:32:14 -80.01, -61.70 93.68 0.84 70
5 10/04/2024 02:21:42 79.80, 107.66 86.00 10/04/2024 02:21:17 79.80, 107.63 86.01 0.58 25
6 10/06/2024 05:57:21 -79.91,-127.27 93.01 10/06/2024 05:57:27 -79.91,-127.21 93.03 1.26 6
7 10/08/2024 09:32:56 79.91, -1.12 87.78 10/08/2024 09:33:33 79.91, -1.25 87.79 2.59 37
8 10/08/2024 10:23:34 -79.70, 168.17 92.58 10/08/2024 10:22:36 -79.70, 168.04 92.54 2.61 58
9 10/10/2024 13:08:35 -80.02, 123.81 91.21 10/10/2024 13:09:41 -80.02, 123.86 91.25 0.94 66



Historial Predications of SNOs between NPP and PACE
